Weather History for YWLM - September, 2013

Change the Weather History Date:

Friday, September 27, 2013

  Actual Average Record
Temperature  
Mean Temperature 60 °F -  
Max Temperature 71 °F - - ()
Min Temperature 48 °F - - ()
Degree Days  
Heating Degree Days 6    
Growing Degree Days 10 (Base 50)    
Moisture  
Dew Point 39 °F    
Average Humidity 45    
Maximum Humidity 100    
Minimum Humidity 16    
Precipitation  
Precipitation 0.00 in - - ()
Sea Level Pressure  
Sea Level Pressure 30.05 in    
Wind  
Wind Speed 9 mph ()    
Max Wind Speed 16 mph    
Max Gust Speed -    
Visibility 6.2 miles    
Events      
T = Trace of Precipitation, MM = Missing Value Source: Averaged Metar Reports

Daily Weather History Graph

Daily Weather History Graph

Search for Another Location

Airport or City:

Trip Planner

Search our weather history database for the weather conditions in past years. The results will help you decide how hot, cold, wet, or windy it might be!

Date:

Astronomy

Sep. 27, 2013 Rise Set
Actual Time 5:35 AM AEST 5:52 PM AEST
Civil Twilight 5:11 AM AEST 6:16 PM AEST
Nautical Twilight 4:42 AM AEST 6:45 PM AEST
Astronomical Twilight 4:13 AM AEST 7:14 PM AEST
Moon 12:12 AM AEST (9/27) 10:47 AM AEST (9/27)
Length of Visible Light 13h 05m
Length of Day
12h 16m
Waning Gibbous, 51% of the Moon is Illuminated
Sep 27
Waning Gibbous
Sep 27
Last Quarter
Oct 5
New
Oct 12
First Quarter
Oct 19
Full

Hourly Weather History & Observations

Time (AEST) Temp. Dew Point Humidity Pressure Visibility Wind Dir Wind Speed Gust Speed Precip Events Conditions
12:00 AM 56 °F 28 °F 22% 30.02 in - WNW 11.5 mph - -  
12:00 AM 55.4 °F 28.4 °F 36% 30.01 in 6.2 mi WNW 11.5 mph - N/A   Unknown
12:30 AM 55.4 °F 28.4 °F 36% 30.01 in 6.2 mi West 12.7 mph - N/A   Unknown
1:00 AM 54 °F 31 °F 29% 30.03 in - WNW 8.1 mph - -  
1:00 AM 53.6 °F 30.2 °F 41% 30.01 in 6.2 mi WNW 8.1 mph - N/A   Unknown
1:30 AM 53.6 °F 30.2 °F 41% 30.01 in 6.2 mi NW 8.1 mph - N/A   Unknown
2:00 AM 50.0 °F 33.8 °F 54% 30.04 in 6.2 mi NW 8.1 mph - N/A   Unknown
2:30 AM 50.0 °F 33.8 °F 54% 30.04 in 6.2 mi WNW 8.1 mph - N/A   Unknown
3:00 AM 51 °F 33 °F 38% 30.05 in - NW 8.1 mph - -  
3:00 AM 51.8 °F 33.8 °F 50% 30.04 in 6.2 mi NW 8.1 mph - N/A   Unknown
3:30 AM 51.8 °F 33.8 °F 50% 30.04 in 6.2 mi WNW 10.4 mph - N/A   Unknown
4:00 AM 51 °F 34 °F 40% 30.06 in - West 9.2 mph - -  
4:00 AM 51.8 °F 33.8 °F 50% 30.04 in - West 9.2 mph - N/A   Unknown
4:30 AM 50.0 °F 35.6 °F 58% 30.06 in 6.2 mi WNW 10.4 mph - N/A   Unknown
5:00 AM 50.0 °F 35.6 °F 58% 30.06 in 6.2 mi WNW 9.2 mph - N/A   Unknown
5:30 AM 50.0 °F 35.6 °F 58% 30.09 in 6.2 mi WNW 9.2 mph - N/A   Unknown
6:00 AM 51 °F 35 °F 43% 30.12 in - West 10.4 mph - -  
6:00 AM 50.0 °F 35.6 °F 58% 30.09 in - West 10.4 mph - N/A   Clear
6:30 AM 53.6 °F 35.6 °F 51% 30.12 in - West 8.1 mph - N/A   Clear
7:00 AM 56 °F 35 °F 33% 30.13 in - West 8.1 mph - -  
7:00 AM 55.4 °F 35.6 °F 47% 30.12 in - West 8.1 mph - N/A   Clear
7:30 AM 59.0 °F 33.8 °F 39% 30.12 in - WNW 10.4 mph - N/A   Clear
8:00 AM 60.8 °F 33.8 °F 36% 30.12 in - WNW 10.4 mph - N/A   Clear
8:30 AM 62.6 °F 32.0 °F 32% 30.15 in - WNW 11.5 mph - N/A   Clear
9:00 AM 65 °F 31 °F 17% 30.16 in - WNW 9.2 mph - -  
9:00 AM 64.4 °F 32.0 °F 30% 30.15 in - WNW 9.2 mph - N/A   Clear
9:30 AM 66.2 °F 30.2 °F 26% 30.15 in - WNW 8.1 mph - N/A   Clear
10:00 AM 67 °F 32 °F 16% 30.14 in - WSW 6.9 mph - -  
10:00 AM 68.0 °F 32.0 °F 26% 30.12 in - WSW 6.9 mph - N/A   Clear
10:30 AM 68.0 °F 32.0 °F 26% 30.12 in - WNW 6.9 mph - N/A   Clear
11:00 AM 71.6 °F 28.4 °F 20% 30.09 in 6.2 mi NNW 4.6 mph - N/A   Unknown
11:30 AM 71.6 °F 32.0 °F 23% 30.09 in - East 6.9 mph - N/A   Clear
12:00 PM 71 °F 36 °F 17% 30.09 in - ESE 11.5 mph - -  
12:00 PM 69.8 °F 35.6 °F 28% 30.06 in - ESE 11.5 mph - N/A   Clear
12:30 PM 71.6 °F 37.4 °F 29% 30.06 in - SE 13.8 mph - N/A   Clear
1:00 PM 70 °F 37 °F 19% 30.07 in - SE 12.7 mph - -  
1:00 PM 69.8 °F 37.4 °F 31% 30.06 in - SE 12.7 mph - N/A   Clear
1:30 PM 69.8 °F 37.4 °F 31% 30.04 in - ESE 15.0 mph - N/A   Clear
2:00 PM 69.8 °F 33.8 °F 27% 30.04 in - ESE 15.0 mph - N/A   Clear
2:30 PM 69.8 °F 33.8 °F 27% 30.04 in - ESE 15.0 mph - N/A   Clear
3:00 PM 69 °F 36 °F 19% 30.04 in - East 16.1 mph - -  
3:00 PM 69.8 °F 35.6 °F 28% 30.01 in - East 16.1 mph - N/A   Clear
3:30 PM 68.0 °F 37.4 °F 33% 30.01 in - East 15.0 mph - N/A   Clear
4:00 PM 68 °F 37 °F 21% 30.02 in - East 16.1 mph - -  
4:00 PM 68.0 °F 37.4 °F 33% 30.01 in - East 16.1 mph - N/A   Clear
4:30 PM 68.0 °F 39.2 °F 35% 30.01 in 6.2 mi East 11.5 mph - N/A   Unknown
5:00 PM 66.2 °F 35.6 °F 32% 30.01 in 6.2 mi ENE 11.5 mph - N/A   Unknown
5:30 PM 64.4 °F 37.4 °F 37% 30.01 in 6.2 mi ENE 9.2 mph - N/A   Unknown
6:00 PM 63 °F 42 °F 34% 30.03 in - ENE 8.1 mph - -  
6:00 PM 62.6 °F 41.0 °F 45% 30.01 in 6.2 mi ENE 8.1 mph - N/A   Unknown
6:30 PM 60.8 °F 44.6 °F 55% 30.01 in 6.2 mi ENE 8.1 mph - N/A   Unknown
7:00 PM 62 °F 46 °F 45% 30.03 in - ENE 8.1 mph - -  
7:00 PM 60.8 °F 46.4 °F 59% 30.01 in 6.2 mi ENE 8.1 mph - N/A   Unknown
7:30 PM 62.6 °F 48.2 °F 59% 30.01 in 6.2 mi NE 10.4 mph - N/A   Unknown
8:00 PM 62.6 °F 51.8 °F 68% 30.04 in 6.2 mi NE 10.4 mph - N/A   Unknown
8:30 PM 60.8 °F 57.2 °F 88% 30.04 in 6.2 mi NE 8.1 mph - N/A   Unknown
9:00 PM 61 °F 57 °F 84% 30.03 in - NE 9.2 mph - -  
9:00 PM 60.8 °F 57.2 °F 88% 30.01 in 6.2 mi NE 9.2 mph - N/A   Unknown
9:30 PM 60.8 °F 59.0 °F 94% 30.01 in 6.2 mi NE 9.2 mph - N/A   Unknown
10:00 PM 61 °F 60 °F 97% 30.00 in - NE 9.2 mph - -  
10:00 PM 60.8 °F 60.8 °F 100% 29.98 in 6.2 mi NE 9.2 mph - N/A   Unknown
10:30 PM 60.8 °F 59.0 °F 94% 29.98 in 6.2 mi NE 6.9 mph - N/A   Unknown
11:00 PM 60.8 °F 60.8 °F 100% 29.98 in 6.2 mi NNE 9.2 mph - N/A   Unknown
11:30 PM 60.8 °F 59.0 °F 94% 29.95 in 6.2 mi NE 8.1 mph - N/A   Unknown